Location: Cronhütte
(48.9135°N, 9.6869°E)
Time: 21:48:57
(UTC+00:00)

Cosmos 724 - Pass Details

Date: 23 May 2024
Orbit: 864 x 930 km, 65.6° (Epoch: 14 June)

Event Time Altitude Azimuth Distance (km) Brightness Sun altitude
Exits shadow 00:12:03 28° 229° (SW) 1,591 5.2 -19.4°
Maximum altitude 00:15:16 74° 310° (NW) 913 4.4 -19.3°
Drops below altitude 10° 00:21:07 10° 36° (NE) 2,523 7.7 -19.0°
Sets 00:23:36 0° 38° (NE) 3,460 8.6 -18.9°
